Weather History for Hazen, ND

Change the Weather History Date:

Wednesday, March 19, 2014

  Actual Average (KN60) Record (KN60)
Temperature  
Mean Temperature 30 °F -  
Max Temperature 44 °F 33 °F 65 °F (2012)
Min Temperature 17 °F 16 °F -5 °F (2013)
Degree Days  
Heating Degree Days 34    
Moisture  
Dew Point 23 °F    
Average Humidity 74    
Maximum Humidity 93    
Minimum Humidity 37    
Precipitation  
Precipitation 0.45 in - - ()
Sea Level Pressure  
Sea Level Pressure 29.94 in    
Wind  
Wind Speed 6 mph (WNW)    
Max Wind Speed 21 mph    
Max Gust Speed 26 mph    
Visibility 10 miles    
Events Snow    
Averages and records for this station are not official NWS values.
T = Trace of Precipitation, MM = Missing Value Source: NWS Daily Summary

Daily Weather History Graph

Daily Weather History Graph

Search for Another Location

Airport:

Trip Planner

Search our weather history database for the weather conditions in past years. The results will help you decide how hot, cold, wet, or windy it might be!

Date:

Astronomy

Mar. 19, 2014 Rise Set
Actual Time 7:51 AM CDT 7:57 PM CDT
Civil Twilight 7:20 AM CDT 8:28 PM CDT
Nautical Twilight 6:44 AM CDT 9:04 PM CDT
Astronomical Twilight 6:08 AM CDT 9:41 PM CDT
Moon 11:33 PM CDT (3/19) 9:05 AM CDT (3/19)
Length of Visible Light 13h 07m
Length of Day
12h 06m
Waning Gibbous, 91% of the Moon is Illuminated
Mar 19
Waning Gibbous
Mar 23
Last Quarter
Mar 30
New
Apr 7
First Quarter
Apr 15
Full

Hourly Weather History & Observations

Time (CDT) Temp. Windchill Dew Point Humidity Pressure Visibility Wind Dir Wind Speed Gust Speed Precip Events Conditions
12:15 AM 17.6 °F 12.3 °F 15.8 °F 93% 30.00 in 10.0 mi West 3.5 mph - N/A   Clear
12:35 AM 21.2 °F - 19.4 °F 93% 29.99 in 10.0 mi Calm Calm - N/A   Clear
12:55 AM 23.0 °F 13.9 °F 21.2 °F 93% 29.99 in 10.0 mi WSW 8.1 mph - N/A   Clear
1:15 AM 23.0 °F 13.9 °F 21.2 °F 93% 29.99 in 10.0 mi WSW 8.1 mph - N/A   Clear
1:35 AM 23.0 °F 13.9 °F 19.4 °F 86% 29.99 in 10.0 mi WSW 8.1 mph - N/A   Clear
1:55 AM 23.0 °F 14.7 °F 19.4 °F 86% 29.98 in 10.0 mi WSW 6.9 mph - N/A   Clear
2:15 AM 23.0 °F - 19.4 °F 86% 29.98 in 10.0 mi Calm Calm - N/A   Clear
2:35 AM 21.2 °F 14.9 °F 17.6 °F 86% 29.98 in 10.0 mi WSW 4.6 mph - N/A   Clear
2:55 AM 19.4 °F - 17.6 °F 93% 29.97 in 10.0 mi Calm Calm - N/A   Partly Cloudy
3:15 AM 19.4 °F - 17.6 °F 93% 29.97 in 10.0 mi Calm Calm - N/A   Clear
3:35 AM 19.4 °F 12.8 °F 17.6 °F 93% 29.96 in 10.0 mi West 4.6 mph - N/A   Scattered Clouds
3:55 AM 19.4 °F 14.3 °F 17.6 °F 93% 29.95 in 10.0 mi WSW 3.5 mph - N/A   Mostly Cloudy
4:15 AM 19.4 °F 12.8 °F 17.6 °F 93% 29.95 in 10.0 mi West 4.6 mph - N/A   Mostly Cloudy
4:35 AM 19.4 °F 11.5 °F 17.6 °F 93% 29.95 in 10.0 mi West 5.8 mph - N/A   Scattered Clouds
4:55 AM 23.0 °F - 19.4 °F 86% 29.94 in 10.0 mi Calm Calm - N/A   Overcast
5:15 AM 24.8 °F 20.5 °F 21.2 °F 86% 29.94 in 10.0 mi WSW 3.5 mph - N/A   Overcast
5:35 AM 24.8 °F - 21.2 °F 86% 29.93 in 10.0 mi Calm Calm - N/A   Overcast
5:55 AM 26.6 °F - 23.0 °F 86% 29.93 in 5.0 mi Calm Calm - N/A Snow Light Snow
6:15 AM 26.6 °F 22.6 °F 24.8 °F 93% 29.93 in 1.8 mi NNW 3.5 mph - 0.09 in Snow Light Snow
6:35 AM 26.6 °F 21.2 °F 24.8 °F 93% 29.93 in 1.0 mi West 4.6 mph - 0.41 in Snow Light Snow
6:55 AM 26.6 °F 20.0 °F 24.8 °F 93% 29.93 in 10.0 mi West 5.8 mph - 0.44 in   Overcast
7:15 AM 28.4 °F 21.2 °F 26.6 °F 93% 29.93 in 10.0 mi WSW 6.9 mph - N/A   Overcast
7:35 AM 28.4 °F 22.2 °F 24.8 °F 86% 29.93 in 8.0 mi West 5.8 mph - 0.01 in Snow Light Snow
7:55 AM 28.4 °F 19.7 °F 26.6 °F 93% 29.94 in 10.0 mi West 9.2 mph - 0.01 in   Overcast
8:15 AM 28.4 °F 21.2 °F 26.6 °F 93% 29.94 in 10.0 mi WNW 6.9 mph - N/A   Overcast
8:35 AM 28.4 °F 24.6 °F 26.6 °F 93% 29.95 in 10.0 mi WNW 3.5 mph - N/A   Overcast
8:55 AM 28.4 °F 23.3 °F 26.6 °F 93% 29.95 in 10.0 mi NW 4.6 mph - N/A   Overcast
9:15 AM 28.4 °F 24.6 °F 26.6 °F 93% 29.96 in 10.0 mi WNW 3.5 mph - N/A   Overcast
9:35 AM 28.4 °F 24.6 °F 26.6 °F 93% 29.96 in 10.0 mi NW 3.5 mph - N/A   Mostly Cloudy
9:55 AM 30.2 °F 25.4 °F 26.6 °F 86% 29.96 in 10.0 mi NW 4.6 mph - N/A   Partly Cloudy
10:15 AM 32.0 °F 27.5 °F 28.4 °F 87% 29.96 in 10.0 mi West 4.6 mph - N/A   Partly Cloudy
10:35 AM 32.0 °F 25.6 °F 28.4 °F 87% 29.96 in 10.0 mi WNW 6.9 mph - N/A   Partly Cloudy
10:55 AM 32.0 °F 26.4 °F 28.4 °F 87% 29.96 in 10.0 mi WNW 5.8 mph - N/A   Mostly Cloudy
11:15 AM 35.6 °F 28.0 °F 30.2 °F 81% 29.96 in 10.0 mi NW 10.4 mph - N/A   Mostly Cloudy
11:35 AM 35.6 °F 28.0 °F 28.4 °F 75% 29.96 in 10.0 mi NW 10.4 mph - N/A   Mostly Cloudy
11:55 AM 37.4 °F 30.3 °F 28.4 °F 70% 29.96 in 10.0 mi NW 10.4 mph - N/A   Mostly Cloudy
12:15 PM 39.2 °F 32.0 °F 28.4 °F 65% 29.96 in 10.0 mi WNW 11.5 mph - N/A   Mostly Cloudy
12:35 PM 41.0 °F 34.3 °F 28.4 °F 61% 29.96 in 10.0 mi WNW 11.5 mph 16.1 mph N/A   Mostly Cloudy
12:55 PM 41.0 °F 34.7 °F 26.6 °F 57% 29.95 in 10.0 mi West 10.4 mph 19.6 mph N/A   Mostly Cloudy
1:15 PM 41.0 °F 32.8 °F 26.6 °F 57% 29.95 in 10.0 mi NW 16.1 mph - N/A   Scattered Clouds
1:35 PM 41.0 °F 33.9 °F 24.8 °F 53% 29.94 in 10.0 mi NW 12.7 mph - N/A   Mostly Cloudy
1:55 PM 42.8 °F 35.4 °F 26.6 °F 53% 29.94 in 10.0 mi NW 15.0 mph - N/A   Mostly Cloudy
2:15 PM 42.8 °F 36.6 °F 24.8 °F 49% 29.94 in 10.0 mi NW 11.5 mph - N/A   Scattered Clouds
2:35 PM 42.8 °F 34.8 °F 23.0 °F 46% 29.93 in 10.0 mi NW 17.3 mph 21.9 mph N/A   Scattered Clouds
2:55 PM 42.8 °F 34.5 °F 23.0 °F 46% 29.93 in 10.0 mi NW 18.4 mph 24.2 mph N/A   Scattered Clouds
3:15 PM 41.0 °F 31.6 °F 19.4 °F 42% 29.93 in 10.0 mi NW 20.7 mph 26.5 mph N/A   Partly Cloudy
3:35 PM 41.0 °F 32.2 °F 23.0 °F 49% 29.93 in 10.0 mi NW 18.4 mph 24.2 mph N/A   Partly Cloudy
3:55 PM 44.6 °F 36.9 °F 23.0 °F 43% 29.92 in 10.0 mi NW 18.4 mph 26.5 mph N/A   Scattered Clouds
4:15 PM 44.6 °F 37.2 °F 19.4 °F 37% 29.92 in 10.0 mi NW 17.3 mph 24.2 mph N/A   Scattered Clouds
4:35 PM 44.6 °F 37.8 °F 21.2 °F 39% 29.91 in 10.0 mi NW 15.0 mph 26.5 mph N/A   Clear
4:55 PM 44.6 °F 38.1 °F 21.2 °F 39% 29.91 in 10.0 mi NW 13.8 mph 23.0 mph N/A   Partly Cloudy
5:15 PM 44.6 °F 38.1 °F 21.2 °F 39% 29.91 in 10.0 mi NW 13.8 mph 17.3 mph N/A   Partly Cloudy
5:35 PM 44.6 °F 38.1 °F 21.2 °F 39% 29.91 in 10.0 mi NW 13.8 mph - N/A   Clear
5:55 PM 44.6 °F 38.1 °F 23.0 °F 43% 29.91 in 10.0 mi NNW 13.8 mph 17.3 mph N/A   Clear
6:15 PM 44.6 °F 38.4 °F 21.2 °F 39% 29.92 in 10.0 mi NW 12.7 mph - N/A   Clear
6:35 PM 44.6 °F 38.8 °F 23.0 °F 43% 29.92 in 10.0 mi NNW 11.5 mph - N/A   Clear
6:55 PM 42.8 °F 37.0 °F 23.0 °F 46% 29.92 in 10.0 mi NNW 10.4 mph - N/A   Clear
7:15 PM 41.0 °F 37.1 °F 23.0 °F 49% 29.92 in 10.0 mi NNW 5.8 mph - N/A   Clear
7:35 PM 39.2 °F 35.9 °F 23.0 °F 52% 29.91 in 10.0 mi North 4.6 mph - N/A   Clear
7:55 PM 35.6 °F 32.8 °F 23.0 °F 60% 29.91 in 10.0 mi NNE 3.5 mph - N/A   Clear
8:15 PM 32.0 °F 28.7 °F 23.0 °F 69% 29.92 in 10.0 mi ENE 3.5 mph - N/A   Clear
8:35 PM 28.4 °F - 21.2 °F 74% 29.92 in 10.0 mi Calm Calm - N/A   Clear
8:55 PM 26.6 °F - 21.2 °F 80% 29.92 in 10.0 mi Calm Calm - N/A   Clear
9:15 PM 26.6 °F 19.1 °F 21.2 °F 80% 29.92 in 10.0 mi SSE 6.9 mph - N/A   Clear
9:35 PM 24.8 °F - 19.4 °F 80% 29.92 in 10.0 mi Calm Calm - N/A   Clear
9:55 PM 24.8 °F - 19.4 °F 80% 29.92 in 10.0 mi Calm Calm - N/A   Clear
10:15 PM 26.6 °F - 21.2 °F 80% 29.91 in 10.0 mi Calm Calm - N/A   Clear
10:35 PM 23.0 °F - 19.4 °F 86% 29.92 in 10.0 mi Calm Calm - N/A   Clear
10:55 PM 23.0 °F - 19.4 °F 86% 29.92 in 10.0 mi Calm Calm - N/A   Clear
11:15 PM 23.0 °F - 19.4 °F 86% 29.92 in 10.0 mi Calm Calm - N/A   Clear
11:35 PM 24.8 °F - 19.4 °F 80% 29.91 in 10.0 mi Calm Calm - N/A   Clear
11:55 PM 23.0 °F - 19.4 °F 86% 29.91 in 10.0 mi Calm Calm - N/A   Partly Cloudy